Location: Milton Keynes
(52.0316°N, 0.7531°W)
Time: 09:48:15
(UTC+00:00)

OTV 5 (USA 277) - Pass Details

Date: 27 January 2019
Orbit: 342 x 346 km, 54.5° (Epoch: 17 February)

Event Time Altitude Azimuth Distance (km) Brightness Sun altitude
Exits shadow 05:41:54 - 183° (S) 1,926 ? -19.6°
Reaches altitude 10° 05:44:53 10° 141° (SE) 1,292 ? -19.2°
Maximum altitude 05:45:14 10° 134° (SE) 1,283 ? -19.1°
Drops below altitude 10° 05:45:35 10° 127° (SE) 1,293 ? -19.1°
Sets 05:49:11 0° 79° (E) 2,140 ? -18.5°
